GEO-KOMPSAT-2A

Last updated on Thu Sep 10 2026 00:02:39 GMT+0000 (Coordinated Universal Time)

1 43823U 18100A 26252.39716660 -.00000365 00000+0 00000+0 0 9998 2 43823 0.0117 98.0284 0001858 28.8748 132.7698 1.00266836 28470
UTC large
Height (km)
Speed (km/s)
/
Latitude / Longitude
Inclination (degrees)
Orbital Period (minutes)
Azimuth
Elevation
Range (km)
Doppler Factor

Next 0 passes for location: London (51.5072 / 0.1276)

No passes found over London.
GEO-KOMPSAT-2A